{"data":{"norad_id":51858,"epoch":"2026-05-25T01:55:36.897888Z","epoch_age_seconds":68946,"freshness":"FRESH","line1":"1 51858U 22022G   26145.08028817  .00000680  00000+0  60810-4 0  9999","line2":"2 51858  53.2122  36.1911 0001214  72.8389 287.2736 15.08838563234551","mean_motion":15.08838563,"eccentricity":0.0001214,"inclination_deg":53.2122,"raan_deg":36.1911,"arg_perigee_deg":72.8389,"mean_anomaly_deg":287.2736,"bstar":6.081e-5,"rev_number":23455,"period_min":95.437645571364,"perigee_km":538.90795008926,"apogee_km":540.58761251416,"semimajor_km":6917.8847813017,"source":"CELESTRAK","updated_at":"2026-05-25T13:38:16.960527Z"}}